Retour au catalogue

DIRECTV 10

ActifCommunicationsGEO
NORAD 31862·PAYLOAD·🇺🇸 United States

Lancé Jul 7, 2007 depuis Baikonur Cosmodrome

Loading…

TLE

FraisSource: Space-Track

Époque: Sep 14, 2026, 12:44 UTC

1 31862U 07032A   26257.53119539 -.00000200  00000-0  00000-0 0  9993
2 31862   0.6352  87.1359 0003735 331.8906 263.9326  0.98339729 46448

Suivez DIRECTV 10 en temps réel avec AllMySat

Download on the App Store